Orbital Elements at Epoch 2459000.5 (2020-May-31.0) TDB
Reference: JPL 13 (heliocentric ecliptic J2000)
Element | Value | Uncertainty (1-sigma) | Units |
e | .05383389978562395 | 5.7279e-08 | |
a | 3.087266744064763 | 4.0167e-08 | au |
q | 2.921067135553291 | 1.7366e-07 | au |
i | 13.56983496584167 | 6.643e-06 | deg |
node | 42.19251217322898 | 2.5798e-05 | deg |
peri | 20.97528184720914 | 6.9363e-05 | deg |
M | 226.6856148452764 | 6.7007e-05 | deg |
tp | 2459734.226445079466 (2022-Jun-03.72644508) | 0.00037595 | TDB |
period | 1981.342973018606 5.42 | 3.8667e-05 1.059e-07 | d yr |
n | .1816949437338123 | 3.5459e-09 | deg/d |
Q | 3.253466352576235 | 4.2329e-08 | au |
|
| | Orbit Determination Parameters
Additional Information
|